Location: George Washington National Forest Helicopter Landing Site
(38.6463°N, 79.0851°W)
Time: 06:34:10
(UTC-04:00)

OTV 5 (USA 277) - Pass Details

Date: 31 July 2019
Orbit: 305 x 329 km, 54.5° (Epoch: 20 August)

Event Time Altitude Azimuth Distance (km) Brightness Sun altitude
Exits shadow 05:35:59 - 185° (S) 1,883 ? -7.9°
Reaches altitude 10° 05:38:17 10° 158° (SSE) 1,179 ? -7.5°
Maximum altitude 05:39:37 13° 127° (SE) 1,024 ? -7.3°
Drops below altitude 10° 05:40:58 10° 96° (E) 1,182 ? -7.1°
Sets 05:43:35 0° 66° (ENE) 2,011 ? -6.6°
